QPF
0.06 0.07 0.08 0.08 0.05 0.04 0.04 0.04 0.04 0.03 0.03 0.03 0.03 0.04 0.05 0.04 0.05 0.05 0.05 0.05 0.05 0.05 0.05 0.05 0.04 0.04 0.05 0.08 0.09 0.09 0.11 0.09 0.08 0.07 0.06 0.07 0.06 0.06 0.05 0.06 0.04 0.04 0.04
0.07 0.07 0.09 0.10 0.09 0.07 0.05 0.05 0.05 0.05 0.04 0.03 0.03 0.04 0.04 0.04 0.04 0.04 0.04 0.03 0.03 0.04 0.05 0.06 0.05 0.05 0.05 0.06 0.07 0.08 0.09 0.09 0.09 0.09 0.09 0.07 0.06 0.07 0.07 0.07 0.05 0.04 0.05
0.04 0.04 0.05 0.05 0.06 0.06 0.05 0.05 0.06 0.05 0.03 0.02 0.02 0.03 0.03 0.04 0.04 0.04 0.05 0.04 0.03 0.04 0.05 0.06 0.06 0.06 0.06 0.06 0.06 0.06 0.06 0.06 0.06 0.06 0.07 0.07 0.06 0.06 0.07 0.08 0.06 0.05 0.05
0.04 0.03 0.03 0.03 0.04 0.04 0.04 0.03 0.03 0.03 0.03 0.02 0.02 0.02 0.03 0.03 0.03 0.03 0.03 0.04 0.04 0.04 0.03 0.04 0.05 0.05 0.06 0.08 0.06 0.05 0.05 0.05 0.05 0.06 0.06 0.06 0.06 0.06 0.06 0.08 0.08 0.06 0.07
0.04 0.04 0.04 0.03 0.04 0.03 0.03 0.03 0.02 0.02 0.02 0.02 0.02 0.02 0.03 0.02 0.03 0.03 0.03 0.03 0.04 0.05 0.04 0.04 0.03 0.04 0.05 0.06 0.06 0.07 0.07 0.07 0.07 0.08 0.08 0.08 0.07 0.08 0.06 0.06 0.07 0.06 0.07
0.03 0.03 0.04 0.03 0.03 0.04 0.04 0.03 0.03 0.03 0.03 0.03 0.03 0.02 0.02 0.02 0.04 0.05 0.04 0.04 0.04 0.05 0.05 0.04 0.04 0.04 0.04 0.04 0.05 0.06 0.07 0.08 0.08 0.07 0.07 0.07 0.07 0.06 0.05 0.05 0.06 0.05 0.05
0.02 0.02 0.03 0.04 0.03 0.03 0.03 0.03 0.03 0.03 0.04 0.04 0.03 0.03 0.03 0.03 0.03 0.04 0.04 0.04 0.05 0.05 0.05 0.05 0.05 0.04 0.04 0.03 0.03 0.04 0.05 0.06 0.05 0.06 0.07 0.07 0.05 0.04 0.04 0.06 0.06 0.05 0.04
0.01 0.02 0.03 0.02 0.02 0.03 0.03 0.03 0.03 0.03 0.03 0.02 0.02 0.02 0.03 0.03 0.03 0.03 0.03 0.03 0.05 0.05 0.05 0.05 0.04 0.04 0.04 0.05 0.05 0.04 0.03 0.03 0.02 0.03 0.04 0.05 0.05 0.05 0.04 0.06 0.07 0.05 0.06
0.01 0.01 0.01 0.01 0.02 0.03 0.02 0.02 0.03 0.03 0.03 0.02 0.02 0.02 0.02 0.03 0.02 0.02 0.03 0.04 0.04 0.04 0.03 0.03 0.04 0.04 0.03 0.03 0.03 0.04 0.03 0.03 0.02 0.02 0.02 0.03 0.04 0.04 0.03 0.05 0.06 0.05 0.06
0.01 0.01 0.02 0.02 0.02 0.03 0.03 0.03 0.02 0.02 0.02 0.03 0.02 0.01 0.02 0.03 0.02 0.01 0.02 0.04 0.04 0.04 0.04 0.03 0.03 0.02 0.01 0.01 0.01 0.02 0.02 0.02 0.01 0.02 0.02 0.02 0.02 0.02 0.03 0.03 0.04 0.04 0.04
0.02 0.03 0.03 0.02 0.03 0.03 0.04 0.04 0.04 0.03 0.03 0.03 0.03 0.02 0.02 0.03 0.03 0.02 0.02 0.02 0.04 0.04 0.04 0.03 0.02 0.01 0.01 0.01 0.01 0.01 0.02 0.02 0.01 0.01 0.01 0.02 0.03 0.03 0.03 0.03 0.03 0.03 0.03
0.04 0.03 0.02 0.02 0.03 0.03 0.04 0.05 0.04 0.04 0.03 0.04 0.03 0.02 0.02 0.02 0.02 0.02 0.02 0.02 0.03 0.04 0.04 0.03 0.02 0.02 0.02 0.02 0.01 0.01 0.01 0.01 0.01 0.01 0.01 0.01 0.02 0.01 0.01 0.02 0.03 0.03 0.02
0.02 0.02 0.02 0.02 0.03 0.03 0.04 0.04 0.05 0.05 0.05 0.04 0.03 0.03 0.02 0.02 0.02 0.02 0.02 0.01 0.01 0.02 0.03 0.03 0.02 0.02 0.01 0.01 0.01 0.01 0.01 0.01 0.01 0.01 0.01 0.02 0.02 0.02 0.01 0.01 0.02 0.02 0.02
0.02 0.03 0.02 0.03 0.03 0.03 0.03 0.03 0.04 0.06 0.06 0.04 0.03 0.02 0.02 0.02 0.01 0.01 0.01 0.01 0.01 0.01 0.01 0.01 0.01 0.01 0.01 0.01 0.00 0.00 0.00 0.01 0.02 0.01 0.02 0.01 0.01 0.01 0.01 0.01 0.02 0.02 0.02
0.03 0.04 0.03 0.04 0.04 0.03 0.03 0.03 0.04 0.05 0.06 0.07 0.04 0.03 0.02 0.02 0.01 0.01 0.01 0.01 0.01 0.01 0.00 0.00 0.00 0.01 0.00 0.00 0.00 0.00 0.00 0.00 0.01 0.02 0.01 0.00 0.00 0.00 0.01 0.01 0.01 0.03 0.03
0.03 0.03 0.03 0.03 0.03 0.03 0.04 0.04 0.03 0.04 0.04 0.06 0.06 0.05 0.03 0.02 0.02 0.02 0.02 0.01 0.01 0.01 0.01 0.00 0.00 0.00 0.00 0.00 0.00 0.00 0.00 0.00 0.01 0.02 0.02 0.01 0.01 0.01 0.01 0.01 0.01 0.02 0.02
0.03 0.03 0.02 0.03 0.03 0.03 0.03 0.03 0.03 0.04 0.04 0.04 0.05 0.05 0.04 0.03 0.02 0.02 0.02 0.02 0.01 0.01 0.01 0.01 0.01 0.00 0.00 0.00 0.00 0.00 0.00 0.00 0.00 0.00 0.01 0.01 0.01 0.01 0.01 0.00 0.01 0.01 0.01
0.04 0.04 0.02 0.01 0.01 0.02 0.02 0.02 0.03 0.03 0.02 0.03 0.04 0.04 0.04 0.03 0.02 0.02 0.02 0.02 0.02 0.01 0.01 0.01 0.01 0.01 0.01 0.00 0.00 0.00 0.00 0.01 0.01 0.00 0.00 0.00 0.00 0.01 0.01 0.01 0.01 0.01 0.01
0.04 0.03 0.02 0.02 0.03 0.03 0.03 0.03 0.02 0.02 0.02 0.01 0.01 0.02 0.03 0.04 0.03 0.02 0.03 0.03 0.03 0.02 0.01 0.01 0.02 0.02 0.01 0.01 0.01 0.00 0.00 0.01 0.01 0.01 0.01 0.01 0.00 0.01 0.01 0.02 0.02 0.02 0.02
0.03 0.02 0.03 0.03 0.03 0.03 0.03 0.02 0.02 0.03 0.02 0.02 0.02 0.04 0.04 0.03 0.03 0.03 0.03 0.03 0.02 0.02 0.02 0.02 0.02 0.02 0.02 0.02 0.01 0.01 0.01 0.01 0.01 0.01 0.01 0.01 0.01 0.01 0.02 0.02 0.03 0.03 0.03
0.03 0.01 0.02 0.02 0.03 0.03 0.03 0.04 0.03 0.03 0.03 0.03 0.04 0.03 0.04 0.04 0.03 0.03 0.03 0.03 0.03 0.03 0.02 0.02 0.02 0.03 0.03 0.03 0.02 0.02 0.02 0.02 0.02 0.01 0.01 0.02 0.01 0.02 0.02 0.01 0.01 0.02 0.02
0.03 0.02 0.01 0.02 0.02 0.02 0.02 0.02 0.02 0.03 0.03 0.04 0.04 0.03 0.03 0.03 0.03 0.03 0.03 0.03 0.03 0.03 0.02 0.02 0.02 0.02 0.03 0.03 0.02 0.02 0.02 0.02 0.02 0.02 0.02 0.02 0.03 0.03 0.03 0.03 0.02 0.02 0.01
0.02 0.02 0.03 0.04 0.04 0.03 0.02 0.02 0.02 0.02 0.02 0.03 0.03 0.03 0.03 0.03 0.03 0.03 0.03 0.03 0.03 0.03 0.03 0.02 0.02 0.02 0.02 0.02 0.03 0.03 0.03 0.03 0.03 0.04 0.03 0.03 0.03 0.03 0.03 0.03 0.02 0.02 0.01
0.03 0.03 0.05 0.05 0.05 0.04 0.04 0.04 0.03 0.02 0.02 0.02 0.02 0.02 0.03 0.02 0.03 0.02 0.02 0.03 0.03 0.03 0.03 0.04 0.04 0.04 0.04 0.04 0.04 0.04 0.05 0.05 0.05 0.05 0.03 0.03 0.02 0.02 0.02 0.02 0.01 0.01 0.01
0.05 0.06 0.06 0.05 0.03 0.03 0.03 0.04 0.04 0.03 0.02 0.02 0.02 0.02 0.02 0.03 0.03 0.04 0.04 0.03 0.03 0.02 0.02 0.03 0.03 0.04 0.04 0.04 0.05 0.04 0.04 0.04 0.04 0.03 0.03 0.02 0.02 0.02 0.02 0.02 0.02 0.02 0.02
0.05 0.05 0.06 0.04 0.03 0.02 0.01 0.01 0.01 0.02 0.02 0.03 0.03 0.03 0.03 0.02 0.03 0.03 0.04 0.04 0.04 0.03 0.02 0.02 0.03 0.03 0.03 0.03 0.03 0.03 0.03 0.02 0.02 0.02 0.01 0.02 0.02 0.01 0.01 0.01 0.01 0.01 0.01
MSLP
1002.83 1004.03 1005.21 1006.28 1007.20 1007.96 1008.56 1009.07 1009.54 1010.03 1010.57 1011.19 1011.89 1012.63 1013.38 1014.10 1014.76 1015.35 1015.85 1016.29 1016.68 1017.03 1017.37 1017.71 1018.03 1018.33 1018.60 1018.82 1018.99 1019.09 1019.13 1019.14 1019.11 1019.07 1019.03 1018.99 1018.95 1018.90 1018.82 1018.72 1018.59 1018.43 1018.26
1002.42 1003.56 1004.70 1005.77 1006.70 1007.48 1008.12 1008.65 1009.13 1009.61 1010.14 1010.73 1011.38 1012.09 1012.81 1013.53 1014.20 1014.82 1015.37 1015.86 1016.31 1016.73 1017.13 1017.52 1017.89 1018.24 1018.56 1018.81 1019.01 1019.15 1019.23 1019.26 1019.24 1019.20 1019.14 1019.06 1018.97 1018.85 1018.70 1018.52 1018.32 1018.09 1017.88
1002.20 1003.23 1004.29 1005.31 1006.22 1007.00 1007.64 1008.19 1008.69 1009.17 1009.68 1010.25 1010.87 1011.55 1012.25 1012.95 1013.63 1014.27 1014.85 1015.40 1015.90 1016.37 1016.83 1017.27 1017.69 1018.09 1018.44 1018.75 1018.99 1019.16 1019.28 1019.34 1019.36 1019.33 1019.28 1019.19 1019.06 1018.90 1018.69 1018.45 1018.18 1017.90 1017.64
1002.08 1002.97 1003.93 1004.86 1005.71 1006.46 1007.11 1007.66 1008.17 1008.66 1009.18 1009.74 1010.35 1011.00 1011.69 1012.38 1013.06 1013.71 1014.33 1014.91 1015.46 1015.98 1016.49 1016.97 1017.44 1017.87 1018.26 1018.60 1018.88 1019.11 1019.27 1019.37 1019.43 1019.43 1019.40 1019.32 1019.18 1019.00 1018.76 1018.47 1018.15 1017.82 1017.52
1001.97 1002.72 1003.53 1004.35 1005.13 1005.83 1006.46 1007.02 1007.55 1008.07 1008.60 1009.17 1009.79 1010.44 1011.12 1011.81 1012.49 1013.16 1013.79 1014.40 1014.99 1015.55 1016.10 1016.62 1017.12 1017.59 1018.01 1018.38 1018.70 1018.96 1019.17 1019.32 1019.42 1019.47 1019.47 1019.41 1019.28 1019.10 1018.84 1018.53 1018.18 1017.82 1017.47
1001.81 1002.39 1003.05 1003.74 1004.42 1005.06 1005.67 1006.25 1006.80 1007.36 1007.93 1008.54 1009.17 1009.84 1010.53 1011.22 1011.91 1012.58 1013.23 1013.87 1014.48 1015.07 1015.65 1016.20 1016.73 1017.23 1017.68 1018.08 1018.44 1018.73 1018.98 1019.17 1019.32 1019.41 1019.44 1019.42 1019.32 1019.14 1018.90 1018.58 1018.21 1017.82 1017.44
1001.55 1001.96 1002.45 1003.00 1003.58 1004.17 1004.76 1005.34 1005.94 1006.55 1007.17 1007.82 1008.50 1009.19 1009.90 1010.60 1011.29 1011.97 1012.63 1013.28 1013.91 1014.53 1015.14 1015.72 1016.28 1016.80 1017.29 1017.72 1018.10 1018.43 1018.71 1018.94 1019.12 1019.24 1019.31 1019.32 1019.25 1019.10 1018.87 1018.56 1018.20 1017.80 1017.40
1001.18 1001.41 1001.75 1002.16 1002.64 1003.17 1003.75 1004.35 1004.99 1005.65 1006.34 1007.05 1007.77 1008.50 1009.22 1009.93 1010.63 1011.31 1011.98 1012.64 1013.29 1013.93 1014.57 1015.18 1015.78 1016.33 1016.84 1017.31 1017.72 1018.07 1018.37 1018.63 1018.83 1018.98 1019.07 1019.10 1019.06 1018.93 1018.72 1018.44 1018.09 1017.70 1017.30
1000.73 1000.80 1000.99 1001.28 1001.66 1002.14 1002.70 1003.32 1004.00 1004.73 1005.48 1006.25 1007.02 1007.78 1008.52 1009.24 1009.94 1010.63 1011.30 1011.96 1012.63 1013.30 1013.96 1014.61 1015.24 1015.83 1016.38 1016.87 1017.31 1017.68 1018.00 1018.26 1018.48 1018.64 1018.74 1018.78 1018.76 1018.65 1018.47 1018.21 1017.90 1017.54 1017.16
1000.27 1000.19 1000.23 1000.40 1000.71 1001.14 1001.68 1002.33 1003.05 1003.82 1004.63 1005.45 1006.27 1007.06 1007.82 1008.55 1009.25 1009.93 1010.60 1011.28 1011.96 1012.65 1013.34 1014.03 1014.69 1015.33 1015.91 1016.43 1016.89 1017.28 1017.61 1017.88 1018.08 1018.24 1018.34 1018.38 1018.36 1018.28 1018.12 1017.90 1017.63 1017.31 1016.97
999.84 999.62 999.54 999.61 999.84 1000.23 1000.76 1001.41 1002.16 1002.98 1003.84 1004.70 1005.55 1006.36 1007.14 1007.88 1008.58 1009.27 1009.94 1010.63 1011.33 1012.04 1012.76 1013.48 1014.19 1014.85 1015.47 1016.02 1016.49 1016.89 1017.22 1017.47 1017.67 1017.80 1017.89 1017.92 1017.90 1017.83 1017.70 1017.52 1017.29 1017.03 1016.75
999.51 999.17 998.97 998.96 999.12 999.46 999.97 1000.62 1001.39 1002.23 1003.12 1004.01 1004.88 1005.72 1006.52 1007.26 1007.97 1008.67 1009.35 1010.05 1010.76 1011.50 1012.25 1013.00 1013.73 1014.43 1015.07 1015.63 1016.12 1016.51 1016.83 1017.06 1017.23 1017.34 1017.40 1017.42 1017.39 1017.32 1017.22 1017.08 1016.91 1016.71 1016.50
999.30 998.85 998.56 998.46 998.56 998.85 999.33 999.96 1000.73 1001.58 1002.48 1003.39 1004.29 1005.15 1005.96 1006.72 1007.45 1008.15 1008.85 1009.57 1010.30 1011.05 1011.82 1012.59 1013.34 1014.05 1014.70 1015.27 1015.75 1016.13 1016.43 1016.64 1016.77 1016.85 1016.88 1016.88 1016.84 1016.79 1016.71 1016.60 1016.49 1016.36 1016.21
999.26 998.71 998.34 998.16 998.18 998.42 998.85 999.45 1000.19 1001.03 1001.93 1002.85 1003.76 1004.64 1005.47 1006.25 1007.00 1007.73 1008.45 1009.18 1009.93 1010.70 1011.48 1012.25 1013.00 1013.71 1014.36 1014.91 1015.37 1015.73 1015.99 1016.17 1016.28 1016.32 1016.33 1016.31 1016.27 1016.22 1016.16 1016.09 1016.02 1015.95 1015.87
999.40 998.78 998.32 998.06 998.01 998.18 998.55 999.10 999.80 1000.61 1001.49 1002.40 1003.31 1004.20 1005.04 1005.85 1006.63 1007.38 1008.12 1008.87 1009.63 1010.40 1011.18 1011.94 1012.68 1013.37 1013.98 1014.51 1014.94 1015.27 1015.50 1015.65 1015.73 1015.75 1015.74 1015.71 1015.66 1015.62 1015.58 1015.55 1015.52 1015.50 1015.48
999.76 999.08 998.55 998.22 998.09 998.17 998.47 998.94 999.58 1000.33 1001.17 1002.05 1002.95 1003.83 1004.69 1005.51 1006.30 1007.07 1007.83 1008.59 1009.35 1010.11 1010.87 1011.61 1012.31 1012.96 1013.54 1014.03 1014.42 1014.72 1014.92 1015.04 1015.11 1015.12 1015.10 1015.07 1015.03 1015.00 1014.99 1014.98 1014.99 1015.00 1015.02
1000.37 999.64 999.06 998.65 998.44 998.44 998.64 999.02 999.57 1000.25 1001.02 1001.85 1002.71 1003.57 1004.41 1005.22 1006.01 1006.78 1007.53 1008.28 1009.03 1009.76 1010.49 1011.19 1011.85 1012.45 1012.98 1013.43 1013.79 1014.05 1014.24 1014.35 1014.40 1014.42 1014.41 1014.39 1014.38 1014.37 1014.38 1014.40 1014.44 1014.48 1014.53
1001.26 1000.49 999.86 999.39 999.10 999.01 999.11 999.39 999.84 1000.42 1001.10 1001.84 1002.63 1003.43 1004.22 1005.00 1005.75 1006.49 1007.21 1007.92 1008.63 1009.32 1010.00 1010.65 1011.25 1011.80 1012.29 1012.69 1013.02 1013.26 1013.44 1013.55 1013.61 1013.65 1013.67 1013.68 1013.69 1013.72 1013.76 1013.81 1013.88 1013.94 1014.01
1002.42 1001.64 1000.98 1000.45 1000.09 999.92 999.92 1000.09 1000.42 1000.88 1001.44 1002.08 1002.76 1003.46 1004.16 1004.85 1005.54 1006.20 1006.86 1007.51 1008.14 1008.77 1009.38 1009.96 1010.51 1011.01 1011.45 1011.82 1012.12 1012.36 1012.53 1012.66 1012.75 1012.82 1012.87 1012.92 1012.98 1013.05 1013.12 1013.21 1013.30 1013.40 1013.48
1003.83 1003.05 1002.37 1001.82 1001.40 1001.15 1001.06 1001.13 1001.34 1001.67 1002.09 1002.59 1003.13 1003.69 1004.26 1004.83 1005.39 1005.95 1006.50 1007.04 1007.59 1008.13 1008.66 1009.17 1009.65 1010.10 1010.50 1010.84 1011.13 1011.36 1011.55 1011.70 1011.82 1011.93 1012.03 1012.13 1012.23 1012.34 1012.46 1012.59 1012.71 1012.84 1012.95
1005.41 1004.66 1003.99 1003.42 1002.98 1002.67 1002.51 1002.48 1002.57 1002.76 1003.04 1003.37 1003.75 1004.14 1004.54 1004.95 1005.35 1005.76 1006.17 1006.59 1007.02 1007.45 1007.89 1008.32 1008.74 1009.14 1009.50 1009.82 1010.10 1010.34 1010.54 1010.71 1010.87 1011.01 1011.15 1011.29 1011.44 1011.60 1011.76 1011.93 1012.09 1012.25 1012.39
1007.07 1006.36 1005.72 1005.16 1004.71 1004.38 1004.16 1004.05 1004.03 1004.10 1004.23 1004.40 1004.60 1004.80 1005.02 1005.23 1005.46 1005.69 1005.94 1006.21 1006.51 1006.83 1007.17 1007.52 1007.88 1008.22 1008.55 1008.85 1009.12 1009.35 1009.56 1009.75 1009.93 1010.10 1010.27 1010.44 1010.63 1010.82 1011.02 1011.22 1011.43 1011.62 1011.80
1008.70 1008.05 1007.45 1006.93 1006.49 1006.15 1005.90 1005.74 1005.64 1005.60 1005.59 1005.60 1005.63 1005.65 1005.67 1005.70 1005.73 1005.79 1005.87 1005.99 1006.16 1006.36 1006.60 1006.88 1007.16 1007.46 1007.75 1008.03 1008.28 1008.51 1008.71 1008.90 1009.07 1009.24 1009.42 1009.60 1009.80 1010.02 1010.24 1010.47 1010.71 1010.94 1011.16
1010.20 1009.61 1009.07 1008.60 1008.20 1007.88 1007.62 1007.42 1007.26 1007.14 1007.02 1006.90 1006.77 1006.63 1006.48 1006.33 1006.19 1006.08 1006.01 1005.99 1006.03 1006.13 1006.28 1006.48 1006.71 1006.96 1007.21 1007.45 1007.67 1007.87 1008.05 1008.22 1008.37 1008.51 1008.67 1008.83 1009.02 1009.23 1009.45 1009.70 1009.95 1010.21 1010.47
1011.50 1010.98 1010.51 1010.09 1009.74 1009.45 1009.20 1009.00 1008.80 1008.62 1008.42 1008.20 1007.96 1007.68 1007.40 1007.11 1006.83 1006.59 1006.39 1006.25 1006.19 1006.20 1006.27 1006.40 1006.57 1006.77 1006.98 1007.18 1007.36 1007.52 1007.66 1007.77 1007.87 1007.97 1008.07 1008.19 1008.33 1008.51 1008.71 1008.94 1009.20 1009.47 1009.74
1012.59 1012.14 1011.73 1011.38 1011.08 1010.83 1010.60 1010.40 1010.20 1009.98 1009.74 1009.45 1009.13 1008.77 1008.39 1008.00 1007.63 1007.28 1007.00 1006.78 1006.64 1006.57 1006.58 1006.66 1006.78 1006.93 1007.09 1007.24 1007.37 1007.48 1007.55 1007.60 1007.62 1007.64 1007.67 1007.72 1007.80 1007.91 1008.06 1008.26 1008.48 1008.74 1009.01
Thickness
5730 5728 5725 5722 5721 5719 5717 5716 5714 5713 5712 5711 5710 5709 5708 5707 5706 5705 5705 5703 5702 5701 5700 5699 5697 5697 5698 5698 5698 5697 5695 5693 5687 5687 5688 5687 5684 5683 5683 5683 5683 5682 5680
5726 5723 5721 5718 5717 5715 5714 5712 5710 5708 5708 5708 5708 5706 5705 5704 5703 5702 5701 5700 5699 5698 5697 5696 5694 5694 5692 5693 5692 5692 5690 5688 5686 5682 5682 5683 5680 5679 5679 5678 5680 5680 5679
5723 5719 5716 5715 5713 5711 5709 5708 5706 5705 5705 5705 5705 5703 5703 5702 5701 5700 5699 5698 5697 5696 5694 5693 5692 5691 5689 5689 5687 5687 5686 5686 5683 5681 5679 5678 5678 5677 5675 5675 5676 5675 5676
5719 5716 5713 5710 5709 5708 5707 5705 5704 5703 5702 5701 5701 5701 5700 5699 5698 5697 5696 5694 5693 5692 5691 5690 5689 5688 5686 5684 5684 5682 5682 5681 5680 5679 5677 5675 5674 5673 5672 5672 5672 5672 5671
5714 5712 5710 5708 5707 5705 5703 5702 5701 5699 5699 5698 5697 5697 5697 5696 5694 5693 5692 5691 5688 5687 5687 5687 5685 5683 5680 5679 5681 5679 5678 5678 5678 5676 5675 5673 5671 5668 5668 5669 5668 5668 5667
5710 5708 5706 5704 5703 5700 5699 5697 5696 5695 5694 5694 5693 5692 5691 5690 5685 5684 5685 5687 5685 5683 5682 5682 5681 5679 5675 5673 5672 5671 5672 5673 5673 5672 5671 5668 5666 5666 5665 5665 5664 5663 5661
5705 5703 5701 5699 5697 5696 5695 5692 5690 5689 5689 5688 5687 5687 5685 5681 5678 5678 5678 5681 5680 5678 5677 5677 5678 5676 5673 5671 5668 5666 5666 5665 5665 5666 5666 5663 5663 5663 5661 5661 5659 5658 5656
5700 5698 5697 5695 5693 5691 5690 5687 5685 5685 5684 5683 5682 5681 5680 5676 5672 5672 5672 5675 5675 5674 5673 5672 5670 5669 5668 5665 5665 5664 5663 5662 5661 5662 5661 5660 5660 5658 5657 5656 5655 5654 5654
5695 5694 5693 5691 5688 5686 5684 5682 5681 5680 5680 5678 5677 5675 5674 5670 5666 5666 5665 5670 5669 5668 5667 5666 5665 5663 5659 5658 5660 5659 5657 5657 5655 5654 5653 5653 5652 5651 5650 5652 5652 5652 5651
5690 5690 5688 5686 5684 5681 5680 5678 5677 5676 5674 5673 5671 5670 5669 5667 5661 5660 5659 5666 5664 5663 5662 5661 5656 5655 5652 5651 5653 5654 5652 5652 5652 5651 5649 5648 5649 5647 5645 5645 5647 5647 5647
5686 5685 5682 5680 5678 5677 5675 5673 5671 5670 5669 5667 5666 5665 5664 5662 5657 5654 5653 5659 5660 5658 5658 5657 5653 5647 5645 5645 5645 5646 5645 5645 5647 5648 5648 5647 5646 5645 5644 5642 5642 5642 5641
5680 5678 5676 5674 5674 5673 5669 5667 5666 5665 5663 5662 5660 5659 5659 5656 5653 5650 5648 5648 5649 5651 5651 5651 5647 5641 5639 5638 5639 5638 5637 5638 5644 5645 5644 5643 5642 5641 5640 5638 5635 5634 5633
5672 5671 5669 5668 5668 5667 5665 5663 5661 5660 5660 5659 5657 5656 5655 5654 5650 5645 5643 5642 5642 5644 5645 5640 5637 5635 5634 5634 5632 5632 5632 5635 5638 5638 5638 5638 5637 5635 5634 5632 5630 5628 5627
5665 5664 5663 5662 5662 5661 5661 5661 5659 5658 5657 5655 5654 5652 5651 5649 5648 5644 5641 5639 5636 5637 5638 5634 5630 5629 5629 5629 5629 5629 5630 5632 5632 5632 5632 5632 5632 5630 5628 5627 5626 5625 5624
5659 5658 5658 5658 5657 5655 5655 5654 5654 5652 5652 5649 5649 5649 5646 5643 5640 5635 5635 5636 5635 5633 5631 5632 5631 5630 5630 5630 5629 5628 5627 5627 5626 5626 5626 5625 5625 5625 5623 5622 5620 5619 5618
5653 5653 5654 5653 5652 5651 5649 5647 5643 5643 5641 5639 5638 5638 5639 5635 5631 5628 5626 5624 5623 5622 5624 5627 5627 5627 5627 5626 5625 5624 5623 5622 5621 5620 5620 5619 5618 5617 5617 5616 5615 5614 5613
5648 5648 5649 5648 5647 5646 5645 5643 5641 5636 5632 5631 5630 5629 5627 5625 5623 5621 5619 5617 5616 5615 5619 5622 5622 5622 5622 5622 5621 5620 5618 5617 5616 5615 5614 5613 5612 5611 5610 5610 5609 5608 5607
5642 5641 5641 5642 5642 5641 5640 5640 5639 5637 5634 5631 5625 5622 5620 5618 5616 5614 5612 5611 5614 5613 5618 5618 5618 5617 5617 5616 5616 5614 5613 5612 5611 5609 5608 5607 5606 5605 5604 5604 5603 5601 5601
5635 5635 5635 5636 5636 5636 5635 5635 5634 5632 5630 5628 5626 5619 5614 5612 5609 5608 5607 5612 5615 5615 5615 5615 5614 5613 5612 5611 5610 5609 5608 5606 5604 5603 5602 5600 5600 5599 5598 5597 5597 5594 5593
5627 5625 5626 5629 5629 5629 5629 5628 5627 5625 5624 5622 5621 5618 5614 5612 5611 5609 5607 5610 5612 5612 5611 5610 5608 5607 5606 5605 5604 5603 5602 5601 5599 5598 5597 5595 5594 5593 5592 5590 5591 5590 5589
5622 5621 5617 5621 5622 5622 5621 5621 5620 5618 5617 5616 5614 5612 5607 5609 5609 5607 5607 5606 5606 5606 5605 5604 5602 5601 5599 5598 5598 5598 5596 5595 5594 5592 5591 5589 5588 5587 5586 5585 5584 5583 5582
5616 5616 5614 5614 5614 5613 5613 5612 5611 5610 5610 5608 5607 5605 5599 5602 5603 5603 5602 5601 5600 5599 5599 5598 5597 5595 5594 5593 5592 5591 5590 5589 5587 5585 5583 5582 5581 5580 5580 5578 5576 5575 5574
5609 5609 5607 5607 5606 5602 5603 5604 5603 5602 5602 5601 5600 5599 5597 5596 5596 5595 5595 5594 5593 5592 5592 5591 5590 5589 5587 5586 5585 5585 5584 5582 5580 5578 5576 5575 5575 5574 5572 5571 5569 5568 5567
5602 5602 5600 5599 5597 5597 5597 5596 5595 5594 5593 5593 5593 5592 5591 5590 5589 5589 5588 5586 5585 5585 5584 5583 5582 5581 5579 5578 5577 5576 5573 5571 5569 5570 5568 5568 5568 5568 5566 5564 5563 5561 5560
5594 5593 5592 5591 5590 5590 5589 5588 5587 5586 5585 5584 5584 5584 5583 5583 5582 5582 5581 5580 5578 5578 5576 5575 5574 5573 5571 5569 5568 5565 5562 5560 5559 5559 5559 5561 5561 5560 5559 5558 5556 5554 5552
5586 5585 5585 5585 5584 5582 5581 5580 5579 5578 5577 5577 5576 5576 5576 5576 5576 5575 5574 5573 5572 5571 5569 5568 5566 5564 5562 5561 5557 5555 5553 5551 5550 5549 5550 5551 5552 5551 5549 5548 5547 5546 5545